• In Netherlands
  • List of Countries
  • For 7 days
  • Water Temperature
  • Satellite Maps
  • Weather Map
  • Weather Widgets
  • user-avatar
    Login

    Hourly Weather Mazyr

    Today, 22 May, Monday

    Time Temperature Precipitation Wind Pressure Humidity
    00:00 +11°C° 0 mm 3 mps 745 mmHg 86%
    01:00 +10°C° 0 mm 2 mps 746 mmHg 87%
    02:00 +9°C° 0 mm 2 mps 746 mmHg 91%
    03:00 +9°C° 0 mm 2 mps 746 mmHg 91%
    04:00 +9°C° 0 mm 2 mps 746 mmHg 90%
    05:00 +9°C° 0 mm 2 mps 746 mmHg 90%
    06:00 +12°C° 0 mm 2 mps 747 mmHg 81%
    07:00 +14°C° 0 mm 2 mps 747 mmHg 72%
    08:00 +16°C° 0 mm 2 mps 747 mmHg 60%
    09:00 +17°C° 0 mm 2 mps 747 mmHg 54%
    10:00 +18°C° 0 mm 3 mps 747 mmHg 48%
    11:00 +19°C° 0 mm 3 mps 747 mmHg 42%
    12:00 +20°C° 0 mm 3 mps 747 mmHg 39%
    13:00 +21°C° 0 mm 2 mps 747 mmHg 36%
    14:00 +21°C° 0 mm 2 mps 747 mmHg 33%
    15:00 +21°C° 0 mm 2 mps 747 mmHg 34%
    16:00 +21°C° 0 mm 2 mps 747 mmHg 36%
    17:00 +21°C° 0 mm 2 mps 747 mmHg 37%
    18:00 +19°C° 0 mm 1 mps 746 mmHg 46%
    19:00 +16°C° 0 mm 1 mps 746 mmHg 55%
    20:00 +12°C° 0 mm 0 mps 746 mmHg 63%
    21:00 +13°C° 0 mm 1 mps 747 mmHg 60%
    22:00 +14°C° 0 mm 1 mps 747 mmHg 57%
    23:00 +14°C° 0 mm 2 mps 747 mmHg 54%

    Tomorrow, 23 May, Tuesday

    Time Temperature Precipitation Wind Pressure Humidity
    00:00 +14°C° 0 mm 2 mps 747 mmHg 56%
    01:00 +14°C° 0 mm 2 mps 747 mmHg 58%
    02:00 +14°C° 0 mm 2 mps 747 mmHg 60%
    03:00 +14°C° 0 mm 2 mps 747 mmHg 63%
    04:00 +13°C° 0 mm 2 mps 747 mmHg 67%
    05:00 +13°C° 0 mm 2 mps 747 mmHg 70%
    06:00 +15°C° 0 mm 2 mps 747 mmHg 69%
    07:00 +16°C° 0 mm 2 mps 747 mmHg 67%
    08:00 +17°C° 0 mm 2 mps 747 mmHg 65%
    09:00 +19°C° 0 mm 2 mps 747 mmHg 58%
    10:00 +20°C° 0 mm 2 mps 747 mmHg 52%
    11:00 +22°C° 0 mm 3 mps 747 mmHg 45%
    12:00 +22°C° 0.1 mm 3 mps 747 mmHg 43%
    13:00 +24°C° 0.1 mm 3 mps 747 mmHg 41%
    14:00 +24°C° 0.1 mm 3 mps 746 mmHg 39%
    15:00 +24°C° 0 mm 3 mps 746 mmHg 42%
    16:00 +24°C° 0 mm 2 mps 746 mmHg 46%
    17:00 +23°C° 0 mm 2 mps 746 mmHg 49%
    18:00 +20°C° 0.1 mm 2 mps 746 mmHg 59%
    19:00 +18°C° 0.1 mm 2 mps 746 mmHg 68%
    20:00 +16°C° 0.1 mm 2 mps 746 mmHg 78%
    21:00 +15°C° 0.3 mm 1 mps 746 mmHg 82%
    22:00 +15°C° 0.3 mm 1 mps 746 mmHg 86%
    23:00 +14°C° 0.3 mm 1 mps 746 mmHg 89%

    Day after tomorrow, 24 May, Wednesday

    Time Temperature Precipitation Wind Pressure Humidity
    00:00 +14°C° 0.7 mm 1 mps 746 mmHg 91%
    01:00 +14°C° 0.7 mm 1 mps 746 mmHg 92%
    02:00 +14°C° 0.7 mm 2 mps 746 mmHg 94%
    03:00 +14°C° 1 mm 2 mps 745 mmHg 95%
    04:00 +14°C° 1 mm 2 mps 745 mmHg 96%
    05:00 +14°C° 1 mm 2 mps 745 mmHg 96%
    06:00 +15°C° 0.3 mm 2 mps 745 mmHg 94%
    07:00 +16°C° 0.3 mm 3 mps 745 mmHg 91%
    08:00 +16°C° 0.3 mm 3 mps 745 mmHg 88%
    09:00 +17°C° 0.1 mm 3 mps 745 mmHg 83%
    10:00 +18°C° 0.1 mm 3 mps 745 mmHg 78%
    11:00 +19°C° 0.1 mm 4 mps 745 mmHg 74%
    12:00 +18°C° 0.7 mm 3 mps 744 mmHg 77%
    13:00 +18°C° 0.7 mm 3 mps 744 mmHg 81%
    14:00 +17°C° 0.7 mm 3 mps 744 mmHg 85%
    15:00 +17°C° 0.2 mm 3 mps 743 mmHg 83%
    16:00 +18°C° 0.2 mm 3 mps 743 mmHg 81%
    17:00 +18°C° 0.2 mm 3 mps 743 mmHg 79%
    18:00 +17°C° 0.2 mm 2 mps 743 mmHg 84%
    19:00 +16°C° 0.2 mm 2 mps 743 mmHg 88%
    20:00 +15°C° 0.2 mm 2 mps 743 mmHg 93%
    21:00 +15°C° 0.3 mm 1 mps 743 mmHg 94%
    22:00 +14°C° 0.3 mm 1 mps 743 mmHg 95%
    23:00 +14°C° 0.3 mm 1 mps 743 mmHg 97%

    25 May, Thursday

    Time Temperature Precipitation Wind Pressure Humidity
    00:00 +14°C° 0.4 mm 1 mps 743 mmHg 97%
    01:00 +14°C° 0.4 mm 1 mps 743 mmHg 97%
    02:00 +14°C° 0.4 mm 1 mps 743 mmHg 98%
    03:00 +14°C° 1.3 mm 1 mps 743 mmHg 98%
    04:00 +14°C° 1.3 mm 1 mps 743 mmHg 98%
    05:00 +14°C° 1.3 mm 1 mps 743 mmHg 98%
    06:00 +14°C° 0.8 mm 1 mps 743 mmHg 96%
    07:00 +15°C° 0.8 mm 1 mps 743 mmHg 94%
    08:00 +16°C° 0.8 mm 1 mps 744 mmHg 92%
    09:00 +16°C° 0.5 mm 1 mps 744 mmHg 87%
    10:00 +18°C° 0.5 mm 1 mps 744 mmHg 82%
    11:00 +18°C° 0.5 mm 1 mps 744 mmHg 77%
    12:00 +19°C° 0.2 mm 1 mps 744 mmHg 72%
    13:00 +20°C° 0.2 mm 1 mps 744 mmHg 67%
    14:00 +20°C° 0.2 mm 1 mps 744 mmHg 62%
    15:00 +21°C° 0 mm 1 mps 744 mmHg 60%
    16:00 +21°C° 0 mm 1 mps 744 mmHg 57%
    17:00 +21°C° 0 mm 1 mps 744 mmHg 55%
    18:00 +19°C° 0 mm 1 mps 744 mmHg 62%
    19:00 +17°C° 0 mm 2 mps 744 mmHg 69%
    20:00 +15°C° 0 mm 2 mps 744 mmHg 77%
    21:00 +14°C° 0 mm 2 mps 744 mmHg 78%
    22:00 +14°C° 0 mm 2 mps 744 mmHg 79%
    23:00 +13°C° 0 mm 2 mps 744 mmHg 79%

    26 May, Friday

    Time Temperature Precipitation Wind Pressure Humidity
    00:00 +13°C° 0 mm 2 mps 743 mmHg 82%
    01:00 +13°C° 0 mm 2 mps 743 mmHg 85%
    02:00 +12°C° 0 mm 2 mps 743 mmHg 88%
    03:00 +12°C° 0 mm 2 mps 743 mmHg 90%
    04:00 +12°C° 0 mm 2 mps 743 mmHg 92%
    05:00 +12°C° 0 mm 2 mps 743 mmHg 94%
    06:00 +13°C° 0 mm 2 mps 743 mmHg 87%
    07:00 +15°C° 0 mm 2 mps 744 mmHg 81%
    08:00 +16°C° 0 mm 2 mps 744 mmHg 75%
    09:00 +17°C° 0.1 mm 3 mps 744 mmHg 71%
    10:00 +18°C° 0.1 mm 3 mps 744 mmHg 68%
    11:00 +18°C° 0.1 mm 4 mps 745 mmHg 64%
    12:00 +19°C° 0.1 mm 4 mps 745 mmHg 60%
    13:00 +19°C° 0.1 mm 4 mps 745 mmHg 56%
    14:00 +19°C° 0.1 mm 4 mps 745 mmHg 52%
    15:00 +19°C° 0 mm 4 mps 745 mmHg 51%
    16:00 +19°C° 0 mm 4 mps 745 mmHg 50%
    17:00 +19°C° 0 mm 3 mps 745 mmHg 50%
    18:00 +17°C° 0 mm 3 mps 746 mmHg 57%
    19:00 +15°C° 0 mm 2 mps 746 mmHg 65%
    20:00 +14°C° 0 mm 2 mps 746 mmHg 72%
    21:00 +13°C° 0 mm 2 mps 747 mmHg 76%
    22:00 +12°C° 0 mm 2 mps 747 mmHg 79%
    23:00 +10°C° 0 mm 2 mps 747 mmHg 83%

    27 May, Saturday

    Time Temperature Precipitation Wind Pressure Humidity
    00:00 +10°C° 0 mm 2 mps 748 mmHg 86%
    01:00 +9°C° 0 mm 2 mps 748 mmHg 88%
    02:00 +9°C° 0 mm 2 mps 748 mmHg 91%
    03:00 +10°C° 0 mm 1 mps 748 mmHg 91%
    04:00 +10°C° 0 mm 1 mps 749 mmHg 92%
    05:00 +9°C° 0 mm 1 mps 749 mmHg 92%
    06:00 +11°C° 0 mm 1 mps 749 mmHg 83%
    07:00 +13°C° 0 mm 1 mps 750 mmHg 74%
    08:00 +15°C° 0 mm 1 mps 750 mmHg 65%
    09:00 +16°C° 0.1 mm 2 mps 750 mmHg 61%
    10:00 +17°C° 0.1 mm 2 mps 750 mmHg 57%
    11:00 +18°C° 0.1 mm 2 mps 750 mmHg 52%
    12:00 +18°C° 0.1 mm 2 mps 750 mmHg 50%
    13:00 +18°C° 0.1 mm 2 mps 750 mmHg 49%
    14:00 +19°C° 0.1 mm 2 mps 750 mmHg 47%
    15:00 +19°C° 0 mm 2 mps 750 mmHg 47%
    16:00 +18°C° 0 mm 2 mps 750 mmHg 46%
    17:00 +18°C° 0 mm 3 mps 750 mmHg 46%
    18:00 +16°C° 0 mm 2 mps 750 mmHg 52%
    19:00 +15°C° 0 mm 2 mps 750 mmHg 59%
    20:00 +13°C° 0 mm 2 mps 750 mmHg 65%
    21:00 +12°C° 0 mm 2 mps 751 mmHg 63%
    22:00 +12°C° 0 mm 1 mps 751 mmHg 61%
    23:00 +11°C° 0 mm 1 mps 751 mmHg 59%
    Show more